• En España
  • Lista de países
  • Para 7 días
  • Temperatura del agua
  • Mapa Satelital
  • El tiempo en el mapa
  • Informadores
  • user-avatar
    Iniciar sesión

    Tiempo cada hora Quito

    Hoy, 17 Diciembre, Domingo

    Tiempo Temperatura Precipitaciones Viento Presión Humedad
    00:00 +16°C° 0,6 mm 0 mps 622 mmHg 94%
    01:00 +16°C° 0,6 mm 0 mps 622 mmHg 95%
    02:00 +16°C° 0,7 mm 0 mps 622 mmHg 95%
    03:00 +16°C° 0,7 mm 0 mps 621 mmHg 94%
    04:00 +18°C° 0,7 mm 1 mps 621 mmHg 94%
    05:00 +18°C° 0,4 mm 1 mps 622 mmHg 94%
    06:00 +19°C° 0,4 mm 1 mps 622 mmHg 94%
    07:00 +19°C° 0,4 mm 1 mps 622 mmHg 94%
    08:00 +20°C° 0,5 mm 1 mps 623 mmHg 90%
    09:00 +20°C° 0,5 mm 2 mps 623 mmHg 87%
    10:00 +21°C° 0,5 mm 2 mps 623 mmHg 83%
    11:00 +23°C° 1,1 mm 2 mps 623 mmHg 82%
    12:00 +23°C° 1,1 mm 2 mps 623 mmHg 81%
    13:00 +24°C° 1,1 mm 2 mps 622 mmHg 79%
    14:00 +24°C° 1,5 mm 2 mps 622 mmHg 81%
    15:00 +23°C° 1,5 mm 2 mps 621 mmHg 82%
    16:00 +23°C° 1,5 mm 2 mps 621 mmHg 84%
    17:00 +21°C° 1,7 mm 2 mps 621 mmHg 87%
    18:00 +20°C° 1,7 mm 2 mps 621 mmHg 90%
    19:00 +19°C° 1,7 mm 2 mps 621 mmHg 93%
    20:00 +18°C° 1,5 mm 2 mps 622 mmHg 93%
    21:00 +18°C° 1,5 mm 2 mps 622 mmHg 94%
    22:00 +18°C° 1,5 mm 2 mps 622 mmHg 94%
    23:00 +18°C° 0,8 mm 1 mps 622 mmHg 94%

    Mañana, 18 Diciembre, Lunes

    Tiempo Temperatura Precipitaciones Viento Presión Humedad
    00:00 +18°C° 0,8 mm 1 mps 622 mmHg 95%
    01:00 +18°C° 0,8 mm 1 mps 622 mmHg 96%
    02:00 +18°C° 1 mm 1 mps 622 mmHg 96%
    03:00 +18°C° 1 mm 1 mps 622 mmHg 96%
    04:00 +18°C° 1 mm 1 mps 621 mmHg 96%
    05:00 +18°C° 1,2 mm 1 mps 622 mmHg 96%
    06:00 +18°C° 1,2 mm 1 mps 622 mmHg 96%
    07:00 +18°C° 1,2 mm 1 mps 622 mmHg 95%
    08:00 +18°C° 0,6 mm 2 mps 622 mmHg 93%
    09:00 +18°C° 0,6 mm 2 mps 623 mmHg 91%
    10:00 +19°C° 0,6 mm 2 mps 623 mmHg 88%
    11:00 +20°C° 0,4 mm 2 mps 623 mmHg 84%
    12:00 +21°C° 0,4 mm 3 mps 623 mmHg 79%
    13:00 +22°C° 0,4 mm 3 mps 622 mmHg 74%
    14:00 +23°C° 0,8 mm 2 mps 622 mmHg 76%
    15:00 +23°C° 0,8 mm 2 mps 621 mmHg 78%
    16:00 +23°C° 0,8 mm 2 mps 621 mmHg 80%
    17:00 +21°C° 0,7 mm 1 mps 621 mmHg 84%
    18:00 +20°C° 0,7 mm 1 mps 621 mmHg 89%
    19:00 +19°C° 0,7 mm 1 mps 621 mmHg 93%
    20:00 +19°C° 0,7 mm 1 mps 621 mmHg 94%
    21:00 +19°C° 0,7 mm 1 mps 622 mmHg 95%
    22:00 +18°C° 0,7 mm 1 mps 622 mmHg 96%
    23:00 +16°C° 0,9 mm 0 mps 622 mmHg 96%

    Pasado mañana, 19 Diciembre, Martes

    Tiempo Temperatura Precipitaciones Viento Presión Humedad
    00:00 +16°C° 0,9 mm 0 mps 621 mmHg 96%
    01:00 +16°C° 0,9 mm 0 mps 621 mmHg 96%
    02:00 +16°C° 0,1 mm 0 mps 621 mmHg 96%
    03:00 +15°C° 0,1 mm 0 mps 620 mmHg 97%
    04:00 +15°C° 0,1 mm 0 mps 620 mmHg 97%
    05:00 +16°C° 0 mm 0 mps 621 mmHg 96%
    06:00 +16°C° 0 mm 0 mps 621 mmHg 95%
    07:00 +17°C° 0 mm 0 mps 622 mmHg 94%
    08:00 +18°C° 0,3 mm 0 mps 622 mmHg 90%
    09:00 +21°C° 0,3 mm 1 mps 623 mmHg 86%
    10:00 +22°C° 0,3 mm 1 mps 623 mmHg 83%
    11:00 +22°C° 0,7 mm 1 mps 623 mmHg 82%
    12:00 +23°C° 0,7 mm 2 mps 622 mmHg 81%
    13:00 +23°C° 0,7 mm 2 mps 621 mmHg 81%
    14:00 +23°C° 0,8 mm 2 mps 621 mmHg 83%
    15:00 +21°C° 0,8 mm 2 mps 621 mmHg 85%
    16:00 +21°C° 0,8 mm 2 mps 620 mmHg 87%
    17:00 +20°C° 0,8 mm 2 mps 620 mmHg 90%
    18:00 +19°C° 0,8 mm 2 mps 621 mmHg 93%
    19:00 +18°C° 0,8 mm 2 mps 621 mmHg 95%
    20:00 +17°C° 0,8 mm 2 mps 621 mmHg 95%
    21:00 +17°C° 0,8 mm 2 mps 621 mmHg 95%
    22:00 +17°C° 0,8 mm 2 mps 622 mmHg 96%
    23:00 +17°C° 0,2 mm 2 mps 621 mmHg 96%

    20 Diciembre, Miércoles

    Tiempo Temperatura Precipitaciones Viento Presión Humedad
    00:00 +16°C° 0,2 mm 2 mps 621 mmHg 96%
    01:00 +16°C° 0,2 mm 2 mps 620 mmHg 97%
    02:00 +16°C° 0 mm 2 mps 620 mmHg 97%
    03:00 +16°C° 0 mm 2 mps 620 mmHg 96%
    04:00 +16°C° 0 mm 1 mps 620 mmHg 96%
    05:00 +16°C° 0 mm 1 mps 621 mmHg 95%
    06:00 +16°C° 0 mm 1 mps 621 mmHg 94%
    07:00 +18°C° 0 mm 1 mps 622 mmHg 93%
    08:00 +19°C° 0,1 mm 1 mps 622 mmHg 88%
    09:00 +20°C° 0,1 mm 1 mps 623 mmHg 82%
    10:00 +20°C° 0,1 mm 2 mps 624 mmHg 77%
    11:00 +21°C° 0,4 mm 2 mps 623 mmHg 76%
    12:00 +21°C° 0,4 mm 2 mps 623 mmHg 76%
    13:00 +23°C° 0,4 mm 1 mps 623 mmHg 75%
    14:00 +22°C° 0,7 mm 1 mps 622 mmHg 79%
    15:00 +22°C° 0,7 mm 1 mps 622 mmHg 83%
    16:00 +21°C° 0,7 mm 1 mps 621 mmHg 86%
    17:00 +20°C° 0,6 mm 1 mps 622 mmHg 89%
    18:00 +19°C° 0,6 mm 1 mps 622 mmHg 92%
    19:00 +16°C° 0,6 mm 0 mps 622 mmHg 95%
    20:00 +16°C° 0,3 mm 0 mps 622 mmHg 95%
    21:00 +18°C° 0,3 mm 1 mps 622 mmHg 95%
    22:00 +16°C° 0,3 mm 1 mps 623 mmHg 96%
    23:00 +16°C° 0,2 mm 1 mps 622 mmHg 96%

    21 Diciembre, Jueves

    Tiempo Temperatura Precipitaciones Viento Presión Humedad
    00:00 +16°C° 0,2 mm 1 mps 622 mmHg 97%
    01:00 +16°C° 0,2 mm 1 mps 622 mmHg 97%
    02:00 +16°C° 0,1 mm 1 mps 622 mmHg 97%
    03:00 +16°C° 0,1 mm 1 mps 622 mmHg 97%
    04:00 +15°C° 0,1 mm 1 mps 621 mmHg 97%
    05:00 +16°C° 0,2 mm 1 mps 622 mmHg 96%
    06:00 +16°C° 0,2 mm 1 mps 622 mmHg 95%
    07:00 +18°C° 0,2 mm 1 mps 623 mmHg 94%
    08:00 +19°C° 0,4 mm 1 mps 623 mmHg 89%
    09:00 +20°C° 0,4 mm 1 mps 624 mmHg 85%
    10:00 +21°C° 0,4 mm 1 mps 624 mmHg 80%
    11:00 +21°C° 0,5 mm 1 mps 624 mmHg 80%
    12:00 +21°C° 0,5 mm 1 mps 623 mmHg 81%
    13:00 +21°C° 0,5 mm 1 mps 623 mmHg 81%
    14:00 +21°C° 0,3 mm 1 mps 622 mmHg 81%
    15:00 +21°C° 0,3 mm 1 mps 622 mmHg 82%
    16:00 +21°C° 0,3 mm 1 mps 622 mmHg 83%
    17:00 +20°C° 0,1 mm 1 mps 622 mmHg 86%
    18:00 +19°C° 0,1 mm 1 mps 622 mmHg 90%
    19:00 +18°C° 0,1 mm 1 mps 622 mmHg 94%
    20:00 +18°C° 0,5 mm 1 mps 622 mmHg 95%
    21:00 +18°C° 0,5 mm 1 mps 622 mmHg 96%
    22:00 +16°C° 0,5 mm 1 mps 623 mmHg 97%
    23:00 +16°C° 1 mm 1 mps 623 mmHg 97%

    22 Diciembre, Viernes

    Tiempo Temperatura Precipitaciones Viento Presión Humedad
    00:00 +16°C° 1 mm 1 mps 622 mmHg 97%
    01:00 +16°C° 1 mm 2 mps 622 mmHg 97%
    02:00 +16°C° 0,6 mm 2 mps 622 mmHg 97%
    03:00 +16°C° 0,6 mm 2 mps 622 mmHg 97%
    04:00 +16°C° 0,6 mm 2 mps 622 mmHg 96%
    05:00 +16°C° 0,2 mm 2 mps 622 mmHg 95%
    06:00 +17°C° 0,2 mm 2 mps 622 mmHg 94%
    07:00 +17°C° 0,2 mm 2 mps 623 mmHg 93%
    08:00 +19°C° 0,3 mm 2 mps 623 mmHg 86%
    09:00 +20°C° 0,3 mm 2 mps 624 mmHg 80%
    10:00 +23°C° 0,3 mm 2 mps 624 mmHg 74%
    11:00 +23°C° 0,8 mm 2 mps 623 mmHg 74%
    12:00 +23°C° 0,8 mm 2 mps 623 mmHg 74%
    13:00 +24°C° 0,8 mm 2 mps 622 mmHg 74%
    14:00 +23°C° 1 mm 2 mps 622 mmHg 77%
    15:00 +23°C° 1 mm 2 mps 621 mmHg 79%
    16:00 +23°C° 1 mm 2 mps 621 mmHg 81%
    17:00 +21°C° 1,3 mm 2 mps 621 mmHg 85%
    18:00 +20°C° 1,3 mm 1 mps 621 mmHg 88%
    19:00 +19°C° 1,3 mm 1 mps 621 mmHg 92%
    20:00 +19°C° 0,9 mm 1 mps 621 mmHg 92%
    21:00 +18°C° 0,9 mm 1 mps 621 mmHg 93%
    22:00 +18°C° 0,9 mm 1 mps 622 mmHg 93%
    23:00 +18°C° 0,1 mm 1 mps 621 mmHg 93%
    Mostrar más